User: anonymous   Login
Location: Darlington Observatory
(36.4817°N, 105.8156°W)
Time: 10:56:19
(UTC-07:00)
Language:

NOSS 3-3 (A) - Orbit

View from above orbital plane
View from above orbital plane
View from above satellite
View from above satellite

Ground track
Ground track

The orbit data is extracted from the following two-line orbital elements,

1 28537U 05004A   16034.85500028 0.00000000  00000-0  00000-0 0    09
2 28537  63.4294  20.8955 0222000 358.7328   1.2671 13.40702885    01
Epoch (UTC): 03 February 2016 20:31:12
Eccentricity: 0.0222000
inclination: 63.4294°
perigee height: 940 km
apogee height: 1273 km
right ascension of ascending node: 20.8955°
argument of perigee: 358.7328°
revolutions per day: 13.40702885
mean anomaly at epoch: 1.2671°
orbit number at epoch: 0

The dashed part of the orbit path shows where the satellite is in the earth's shadow,  

DLR